Time,TemperatureF,DewpointF,PressureIn,WindDirection,WindDirectionDegrees,WindSpeedMPH,WindSpeedGustMPH,Humidity,HourlyPrecipIn,Conditions,Clouds,dailyrainin,SoftwareType,DateUTC
2013-11-25 00:02:00,28.1,20.0,30.54,SW,228,0.0,0.0,72,0.00,,,0.00,weatherlink.com 1.10,2013-11-25 05:02:00,
2013-11-25 00:17:00,27.4,20.0,30.54,SW,228,0.0,0.0,75,0.00,,,0.00,weatherlink.com 1.10,2013-11-25 05:17:00,
2013-11-25 00:32:00,26.9,21.0,30.54,SW,228,0.0,0.0,79,0.00,,,0.00,weatherlink.com 1.10,2013-11-25 05:32:00,
2013-11-25 00:47:00,26.6,21.0,30.54,SW,228,0.0,0.0,79,0.00,,,0.00,weatherlink.com 1.10,2013-11-25 05:47:00,
2013-11-25 01:02:00,26.5,21.0,30.54,SW,228,0.0,0.0,81,0.00,,,0.00,weatherlink.com 1.10,2013-11-25 06:02:00,
2013-11-25 01:17:00,26.6,21.0,30.54,SW,228,0.0,0.0,79,0.00,,,0.00,weatherlink.com 1.10,2013-11-25 06:17:00,
2013-11-25 01:32:00,26.7,20.0,30.54,West,264,0.0,1.0,75,0.00,,,0.00,weatherlink.com 1.10,2013-11-25 06:32:00,
2013-11-25 01:47:00,27.0,20.0,30.54,SW,236,0.0,0.0,75,0.00,,,0.00,weatherlink.com 1.10,2013-11-25 06:47:00,
2013-11-25 02:02:00,27.0,19.0,30.54,WSW,243,0.0,0.0,72,0.00,,,0.00,weatherlink.com 1.10,2013-11-25 07:02:00,
2013-11-25 02:17:00,27.1,19.0,30.53,NE,41,0.0,1.0,71,0.00,,,0.00,weatherlink.com 1.10,2013-11-25 07:17:00,
2013-11-25 02:32:00,27.1,19.0,30.53,NE,41,0.0,1.0,70,0.00,,,0.00,weatherlink.com 1.10,2013-11-25 07:32:00,
2013-11-25 02:47:00,27.2,18.0,30.54,ESE,108,0.0,1.0,69,0.00,,,0.00,weatherlink.com 1.10,2013-11-25 07:47:00,
2013-11-25 03:02:00,27.3,18.0,30.53,SE,134,0.0,1.0,68,0.00,,,0.00,weatherlink.com 1.10,2013-11-25 08:02:00,
2013-11-25 03:17:00,27.4,18.0,30.53,NE,36,0.0,1.0,68,0.00,,,0.00,weatherlink.com 1.10,2013-11-25 08:17:00,
2013-11-25 03:32:00,27.3,18.0,30.53,ENE,65,0.0,1.0,67,0.00,,,0.00,weatherlink.com 1.10,2013-11-25 08:32:00,
2013-11-25 03:47:00,27.3,18.0,30.52,SSE,158,0.0,1.0,67,0.00,,,0.00,weatherlink.com 1.10,2013-11-25 08:47:00,
2013-11-25 04:02:00,27.4,17.0,30.52,NNE,31,0.0,1.0,66,0.00,,,0.00,weatherlink.com 1.10,2013-11-25 09:02:00,
2013-11-25 04:17:00,27.3,17.0,30.54,WNW,293,0.0,0.0,66,0.00,,,0.00,weatherlink.com 1.10,2013-11-25 09:17:00,
2013-11-25 04:32:00,27.0,17.0,30.54,East,97,0.0,0.0,66,0.00,,,0.00,weatherlink.com 1.10,2013-11-25 09:32:00,
2013-11-25 04:47:00,26.7,17.0,30.53,East,98,0.0,0.0,68,0.00,,,0.00,weatherlink.com 1.10,2013-11-25 09:47:00,
2013-11-25 05:02:00,26.5,18.0,30.54,NE,34,0.0,1.0,69,0.00,,,0.00,weatherlink.com 1.10,2013-11-25 10:02:00,
2013-11-25 05:17:00,26.5,17.0,30.54,NNE,26,0.0,1.0,68,0.00,,,0.00,weatherlink.com 1.10,2013-11-25 10:17:00,
2013-11-25 05:32:00,26.5,18.0,30.54,West,262,0.0,0.0,69,0.00,,,0.00,weatherlink.com 1.10,2013-11-25 10:32:00,
2013-11-25 05:47:00,26.3,17.0,30.54,WNW,287,0.0,1.0,69,0.00,,,0.00,weatherlink.com 1.10,2013-11-25 10:47:00,
2013-11-25 06:02:00,26.2,17.0,30.54,ESE,118,0.0,0.0,69,0.00,,,0.00,weatherlink.com 1.10,2013-11-25 11:02:00,
2013-11-25 06:17:00,26.2,18.0,30.55,East,82,0.0,1.0,70,0.00,,,0.00,weatherlink.com 1.10,2013-11-25 11:17:00,
2013-11-25 06:32:00,25.9,18.0,30.55,WSW,255,0.0,1.0,72,0.00,,,0.00,weatherlink.com 1.10,2013-11-25 11:32:00,
2013-11-25 06:48:00,25.5,18.0,30.56,WSW,253,0.0,0.0,73,0.00,,,0.00,weatherlink.com 1.10,2013-11-25 11:48:00,
2013-11-25 07:03:00,25.4,18.0,30.57,SSW,198,0.0,1.0,74,0.00,,,0.00,weatherlink.com 1.10,2013-11-25 12:03:00,
2013-11-25 07:18:00,25.5,18.0,30.57,NNE,31,0.0,1.0,73,0.00,,,0.00,weatherlink.com 1.10,2013-11-25 12:18:00,
2013-11-25 07:33:00,25.8,18.0,30.57,WSW,238,0.0,1.0,72,0.00,,,0.00,weatherlink.com 1.10,2013-11-25 12:33:00,
2013-11-25 07:48:00,26.3,17.0,30.57,East,82,0.0,1.0,69,0.00,,,0.00,weatherlink.com 1.10,2013-11-25 12:48:00,
2013-11-25 08:03:00,27.0,18.0,30.57,South,181,0.0,1.0,68,0.00,,,0.00,weatherlink.com 1.10,2013-11-25 13:03:00,
2013-11-25 08:18:00,28.0,18.0,30.58,NNW,341,0.0,1.0,65,0.00,,,0.00,weatherlink.com 1.10,2013-11-25 13:18:00,
2013-11-25 08:33:00,29.4,17.0,30.58,NNE,26,0.0,2.0,61,0.00,,,0.00,weatherlink.com 1.10,2013-11-25 13:33:00,
2013-11-25 08:48:00,30.7,17.0,30.58,East,84,0.0,4.0,57,0.00,,,0.00,weatherlink.com 1.10,2013-11-25 13:48:00,
2013-11-25 09:03:00,32.5,16.0,30.58,East,93,1.0,5.0,51,0.00,,,0.00,weatherlink.com 1.10,2013-11-25 14:03:00,
2013-11-25 09:18:00,34.8,16.0,30.57,ESE,118,0.0,4.0,46,0.00,,,0.00,weatherlink.com 1.10,2013-11-25 14:18:00,
2013-11-25 09:33:00,36.9,14.0,30.57,ENE,73,0.0,7.0,39,0.00,,,0.00,weatherlink.com 1.10,2013-11-25 14:33:00,
2013-11-25 09:48:00,38.1,13.0,30.57,SE,137,0.0,4.0,36,0.00,,,0.00,weatherlink.com 1.10,2013-11-25 14:48:00,
2013-11-25 10:03:00,38.8,15.0,30.58,North,1,0.0,4.0,38,0.00,,,0.00,weatherlink.com 1.10,2013-11-25 15:03:00,
2013-11-25 10:18:00,39.8,15.0,30.58,SE,144,1.0,3.0,36,0.00,,,0.00,weatherlink.com 1.10,2013-11-25 15:18:00,
2013-11-25 10:33:00,40.5,17.0,30.58,ENE,58,0.0,8.0,38,0.00,,,0.00,weatherlink.com 1.10,2013-11-25 15:33:00,
2013-11-25 10:48:00,40.6,16.0,30.57,ESE,105,0.0,7.0,37,0.00,,,0.00,weatherlink.com 1.10,2013-11-25 15:48:00,
2013-11-25 11:03:00,41.2,17.0,30.56,ESE,113,4.0,5.0,37,0.00,,,0.00,weatherlink.com 1.10,2013-11-25 16:03:00,
2013-11-25 11:18:00,42.0,17.0,30.54,ESE,108,2.0,5.0,36,0.00,,,0.00,weatherlink.com 1.10,2013-11-25 16:18:00,
2013-11-25 11:33:00,42.1,17.0,30.54,ESE,106,4.0,6.0,37,0.00,,,0.00,weatherlink.com 1.10,2013-11-25 16:33:00,
2013-11-25 11:48:00,42.6,17.0,30.52,South,188,1.0,5.0,35,0.00,,,0.00,weatherlink.com 1.10,2013-11-25 16:48:00,
2013-11-25 12:03:00,43.3,18.0,30.51,SE,144,0.0,6.0,37,0.00,,,0.00,weatherlink.com 1.10,2013-11-25 17:03:00,
2013-11-25 12:18:00,43.7,19.0,30.50,WNW,293,1.0,5.0,38,0.00,,,0.00,weatherlink.com 1.10,2013-11-25 17:18:00,
2013-11-25 12:34:00,44.4,19.0,30.49,ESE,117,3.0,7.0,37,0.00,,,0.00,weatherlink.com 1.10,2013-11-25 17:34:00,
2013-11-25 12:49:00,44.9,22.0,30.48,ESE,110,4.0,4.0,40,0.00,,,0.00,weatherlink.com 1.10,2013-11-25 17:49:00,
2013-11-25 13:04:00,45.3,23.0,30.48,SE,127,2.0,4.0,41,0.00,,,0.00,weatherlink.com 1.10,2013-11-25 18:04:00,
2013-11-25 13:19:00,46.0,23.0,30.46,NNE,23,0.0,7.0,40,0.00,,,0.00,weatherlink.com 1.10,2013-11-25 18:19:00,
2013-11-25 13:34:00,46.7,24.0,30.46,SSE,158,2.0,7.0,41,0.00,,,0.00,weatherlink.com 1.10,2013-11-25 18:34:00,
2013-11-25 13:49:00,47.2,24.0,30.45,SSE,149,0.0,6.0,41,0.00,,,0.00,weatherlink.com 1.10,2013-11-25 18:49:00,
2013-11-25 14:04:00,47.3,27.0,30.44,SE,125,0.0,7.0,45,0.00,,,0.00,weatherlink.com 1.10,2013-11-25 19:04:00,
2013-11-25 14:19:00,47.6,28.0,30.45,SE,124,2.0,5.0,46,0.00,,,0.00,weatherlink.com 1.10,2013-11-25 19:19:00,
2013-11-25 14:34:00,48.1,30.0,30.44,NW,315,2.0,3.0,50,0.00,,,0.00,weatherlink.com 1.10,2013-11-25 19:34:00,
2013-11-25 14:49:00,47.6,30.0,30.44,SSE,163,1.0,5.0,51,0.00,,,0.00,weatherlink.com 1.10,2013-11-25 19:49:00,
2013-11-25 15:04:00,47.3,31.0,30.44,East,101,3.0,5.0,53,0.00,,,0.00,weatherlink.com 1.10,2013-11-25 20:04:00,
2013-11-25 15:19:00,46.8,32.0,30.44,ESE,119,3.0,6.0,57,0.00,,,0.00,weatherlink.com 1.10,2013-11-25 20:19:00,
2013-11-25 15:34:00,46.9,33.0,30.44,SE,127,2.0,4.0,59,0.00,,,0.00,weatherlink.com 1.10,2013-11-25 20:34:00,
2013-11-25 15:49:00,46.5,33.0,30.43,ESE,114,4.0,5.0,60,0.00,,,0.00,weatherlink.com 1.10,2013-11-25 20:49:00,
2013-11-25 16:04:00,46.5,34.0,30.43,ESE,114,4.0,5.0,61,0.00,,,0.00,weatherlink.com 1.10,2013-11-25 21:04:00,
2013-11-25 16:19:00,46.4,35.0,30.43,East,98,1.0,4.0,64,0.00,,,0.00,weatherlink.com 1.10,2013-11-25 21:19:00,
2013-11-25 16:34:00,46.1,35.0,30.43,SE,139,1.0,5.0,66,0.00,,,0.00,weatherlink.com 1.10,2013-11-25 21:34:00,
2013-11-25 16:49:00,46.2,36.0,30.43,ESE,122,1.0,3.0,68,0.00,,,0.00,weatherlink.com 1.10,2013-11-25 21:49:00,
2013-11-25 17:04:00,46.2,37.0,30.42,NE,51,0.0,1.0,69,0.00,,,0.00,weatherlink.com 1.10,2013-11-25 22:04:00,
2013-11-25 17:19:00,45.9,37.0,30.42,SSE,150,0.0,1.0,71,0.00,,,0.00,weatherlink.com 1.10,2013-11-25 22:19:00,
2013-11-25 17:34:00,45.7,37.0,30.42,SE,124,0.0,2.0,72,0.00,,,0.00,weatherlink.com 1.10,2013-11-25 22:34:00,
2013-11-25 17:49:00,45.7,37.0,30.42,East,86,0.0,2.0,72,0.00,,,0.00,weatherlink.com 1.10,2013-11-25 22:49:00,
2013-11-25 18:04:00,45.6,37.0,30.42,South,180,0.0,1.0,73,0.00,,,0.00,weatherlink.com 1.10,2013-11-25 23:04:00,
2013-11-25 18:19:00,45.5,37.0,30.42,NNW,335,0.0,1.0,73,0.00,,,0.00,weatherlink.com 1.10,2013-11-25 23:19:00,
2013-11-25 18:34:00,45.3,37.0,30.42,ESE,122,0.0,2.0,72,0.00,,,0.00,weatherlink.com 1.10,2013-11-25 23:34:00,
2013-11-25 18:49:00,44.7,37.0,30.41,SE,146,0.0,1.0,73,0.00,,,0.00,weatherlink.com 1.10,2013-11-25 23:49:00,
2013-11-25 19:04:00,44.1,37.0,30.41,SSE,156,0.0,1.0,75,0.00,,,0.00,weatherlink.com 1.10,2013-11-26 00:04:00,
2013-11-25 19:19:00,43.9,37.0,30.41,East,94,0.0,1.0,77,0.00,,,0.00,weatherlink.com 1.10,2013-11-26 00:19:00,
2013-11-25 19:34:00,43.3,37.0,30.40,ESE,108,0.0,1.0,77,0.00,,,0.00,weatherlink.com 1.10,2013-11-26 00:34:00,
2013-11-25 19:50:00,42.5,36.0,30.40,ESE,108,0.0,0.0,78,0.00,,,0.00,weatherlink.com 1.10,2013-11-26 00:50:00,
2013-11-25 20:04:00,41.9,36.0,30.40,WSW,248,0.0,1.0,78,0.00,,,0.00,weatherlink.com 1.10,2013-11-26 01:04:00,
2013-11-25 20:19:00,41.2,34.0,30.40,ENE,75,0.0,2.0,76,0.00,,,0.00,weatherlink.com 1.10,2013-11-26 01:19:00,
2013-11-25 20:34:00,40.6,33.0,30.40,ENE,76,0.0,0.0,74,0.00,,,0.00,weatherlink.com 1.10,2013-11-26 01:34:00,
2013-11-25 20:49:00,40.2,31.0,30.39,SE,129,0.0,1.0,71,0.00,,,0.00,weatherlink.com 1.10,2013-11-26 01:49:00,
2013-11-25 21:04:00,40.0,31.0,30.38,NW,314,0.0,0.0,71,0.00,,,0.00,weatherlink.com 1.10,2013-11-26 02:04:00,
2013-11-25 21:19:00,39.5,32.0,30.37,NW,314,0.0,0.0,73,0.00,,,0.00,weatherlink.com 1.10,2013-11-26 02:19:00,
2013-11-25 21:34:00,39.1,31.0,30.37,West,269,0.0,0.0,72,0.00,,,0.00,weatherlink.com 1.10,2013-11-26 02:34:00,
2013-11-25 21:49:00,38.8,31.0,30.36,NW,311,0.0,1.0,74,0.00,,,0.00,weatherlink.com 1.10,2013-11-26 02:49:00,
2013-11-25 22:04:00,38.7,31.0,30.35,SE,135,0.0,1.0,73,0.00,,,0.00,weatherlink.com 1.10,2013-11-26 03:04:00,
2013-11-25 22:20:00,38.7,31.0,30.34,NE,51,0.0,2.0,74,0.00,,,0.00,weatherlink.com 1.10,2013-11-26 03:20:00,
2013-11-25 22:35:00,38.5,32.0,30.33,SSE,165,0.0,0.0,76,0.00,,,0.00,weatherlink.com 1.10,2013-11-26 03:35:00,
2013-11-25 22:50:00,38.5,32.0,30.32,SE,127,0.0,1.0,77,0.00,,,0.00,weatherlink.com 1.10,2013-11-26 03:50:00,
2013-11-25 23:05:00,38.4,32.0,30.30,WNW,302,0.0,1.0,78,0.00,,,0.00,weatherlink.com 1.10,2013-11-26 04:05:00,
2013-11-25 23:20:00,38.4,33.0,30.30,SSW,199,0.0,0.0,80,0.00,,,0.00,weatherlink.com 1.10,2013-11-26 04:20:00,
2013-11-25 23:35:00,38.4,33.0,30.30,West,261,0.0,1.0,82,0.00,,,0.00,weatherlink.com 1.10,2013-11-26 04:35:00,
2013-11-25 23:50:00,38.1,33.0,30.29,West,261,0.0,0.0,83,0.00,,,0.00,weatherlink.com 1.10,2013-11-26 04:50:00,